Location: Helion Bumpstead
(52.0500°N, 0.4000°E)
Time: 20:55:11
(UTC+00:00)

Cosmos 2084 - Pass Details

Date: 15 November 2025
Orbit: 529 x 573 km, 62.8° (Epoch: 14 December)

Event Time Altitude Azimuth Distance (km) Brightness Sun altitude
Exits shadow 05:05:29 29° 344° (NNW) 1,014 4.4 -20.2°
Maximum altitude 05:06:59 42° 33° (NNE) 784 4.2 -20.0°
Drops below altitude 10° 05:10:50 10° 105° (ESE) 1,794 7.1 -19.4°
Sets 05:13:06 0° 112° (ESE) 2,676 8.2 -19.1°
